{"data":{"norad_id":58839,"intl_designator":"2024-017P","name":"STARLINK-31250","alt_names":[],"object_type":"PAYLOAD","status":"ACTIVE","operator":null,"country":"US","launch_date":"2024-01-24","launch_site_code":"AFWTR","launch_vehicle":null,"mission":null,"orbit_class":"UNKNOWN","rcs_meters":null,"size_class":null,"mass_kg":null,"dimensions":null,"purposes":["comms"],"wikipedia_slug":null,"has_3d_model":false,"image_url":null,"decayed_at":null,"tle_current":{"epoch":"2026-09-20T14:05:21.760224Z","epoch_age_seconds":145069,"freshness":"FRESH","line1":"1 58839U 24017P   26263.58705741  .00001582  00000+0  57961-4 0  9990","line2":"2 58839  53.1627   5.0034 0001283  98.3323 261.7826 15.34389903150040","mean_motion":15.34389903,"eccentricity":0.0001283,"inclination_deg":53.1627,"raan_deg":5.0034,"arg_perigee_deg":98.3323,"mean_anomaly_deg":261.7826,"bstar":5.7961e-5,"rev_number":15004,"period_min":93.84837564328,"perigee_km":461.85556713035,"apogee_km":463.6109344367,"semimajor_km":6840.8702507835,"source":"CELESTRAK","updated_at":"2026-09-21T09:00:33.985021Z"}}}